アフリカーノ彗星

C/2018 W2 ( Africano )

English version
Home page
Updated on February 19, 2020

---------------------------------------------------------------------

・ プロフィール

発見日 2018年11月27日
発見光度 18.3等、18.2等
発見者 B. M. Africano (Mount Lemmon), H. Groeller (Catalina Sky Survey)

・ 写真集

・ 軌道要素

Epoch 2019 Aug. 25.0 TT = JDT 2458720.5
T 2019 Sept. 5.72956 TT                                 Bell
q   1.4546666            (2000.0)            P               Q
z  -0.0005218      Peri.  157.97322     +0.92110265     +0.38824894
 +/-0.0000004      Node   181.84961     +0.04815167     -0.04006007
e   1.0007591      Incl.  116.61562     +0.38633060     -0.92068341
From 1908 observations 2018 Nov. 27-2019 Dec. 31, mean residual 0".6.

・ 星図

・ 光度変化

        m1 = 8.0 + 5 logΔ + 12.5 log r

---------------------------------------------------------------------

軌道要素はM.P.E.C. 2020-C98に掲載されたものです。
星図はステラナビゲータ Ver.10 (アストロアーツ) で作成したものです。
光度グラフはComet for Windowsで作成したものです。

---------------------------------------------------------------------

Copyright(C) Seiichi Yoshida (comet@aerith.net). All rights reserved.